Regional Weather Roundup
Issued by NWS

Home | Current Version | Previous Version | Text Only | Print | Product List | Glossary On
Versions: 1 2 3 4 5 6 7 8 9 10 11 12 13 14 15 16 17 18 19 20 21 22 23 24 25 26 27 28 29 30 31 32 33 34 35 36 37 38 39 40 41 42 43 44 45 46 47 48 49 50
000
ASUS46 KSTO 280104
RWRCA

NORTHERN AND CENTRAL CA REGIONAL WEATHER ROUNDUP
NATIONAL WEATHER SERVICE SACRAMENTO CA
500 PM PST THU NOV 27 2014

NOTE: FAIR INDICATES FEW OR NO CLOUDS BELOW 12,000 FEET WITH NO
SIGNIFICANT WEATHER AND/OR OBSTRUCTIONS TO VISIBILITY.

CAZ001-003-280200-
NORTHWEST AREA

CITY           SKY/WX    TMP DP  RH WIND       PRES   REMARKS
CRESCENT CITY  LGT RAIN  59  54  83 S16       30.00F
UKIAH          PTCLDY    58  45  62 N3        30.04S
$$

CAZ006-505>513-280200-
BAY AREA

CITY           SKY/WX    TMP DP  RH WIND       PRES   REMARKS
SANTA ROSA     PTCLDY    63  48  58 S3        30.05S
SAN RAFAEL     N/A       64  MM  MM MISG
NAPA           CLEAR     57  48  72 SE7       30.06F
CONCORD        CLEAR     61  48  62 NW3       30.07F
OAKLAND CITY   N/A       66  MM  MM MISG
OAKLAND        PTCLDY    60  51  72 CALM      30.06F
SAN FRAN CITY  N/A       64  MM  55 MISG
SAN FRAN ARPT  PTCLDY    62  54  74 CALM      30.06F
LIVERMORE      CLEAR     68  46  45 CALM      30.06S
HAYWARD        CLEAR     57  46  66 CALM      30.06F
REDWOOD CITY   N/A       MM  MM  MM MISG
MOFFETT ARPT   PTCLDY    58  49  72 N3        30.07S HAZE
SAN JOSE ARPT  PTCLDY    62  45  53 NW5       30.06S
$$
CAZ034-037-514>518-280200-
CENTRAL COAST

CITY           SKY/WX    TMP DP  RH WIND       PRES   REMARKS
WATSONVILLE    PTCLDY    59  51  75 SE3       30.07S
SALINAS        CLEAR     67  47  48 NW3       30.06F
MONTEREY       CLEAR     60  42  51 SE3       30.07F
SAN LUIS OBISP CLEAR     63  43  48 NW8       30.03S
SANTA MARIA    CLEAR     64  52  64 NW5       30.05S
$$
CAZ015-016-280200-
NORTHERN SACRAMENTO VALLEY

CITY           SKY/WX    TMP DP  RH WIND       PRES   REMARKS
REDDING        CLOUDY    53  49  86 CALM      30.07F
RED BLUFF      MOCLDY    55  49  80 CALM      30.08F
OROVILLE       PTCLDY    59  48  67 CALM      30.08F
$$
CAZ016>018-280200-
SOUTHERN SACRAMENTO VALLEY

CITY           SKY/WX    TMP DP  RH WIND       PRES   REMARKS
AUBURN         PTCLDY    54  46  76 CALM      30.10S
BEALE AFB      CLEAR     59  47  64 N1        30.06F
LINCOLN        FAIR      59  46  63 CALM      30.06F
SAC INTL ARPT  PTCLDY    63  47  55 SW3       30.06F
MATHER AIRPORT PTCLDY    63  46  55 SW3       30.07F
DOWNTOWN SAC   N/A       62  MM  MM MISG
SAC EXEC ARPT  CLEAR     60  48  64 CALM      30.07F
VACAVILLE      CLEAR     54  45  71 CALM      30.08F
TRAVIS AFB     CLEAR     62  53  74 CALM      30.06F
$$
CAZ019>021-280200-
SAN JOAQUIN VALLEY

CITY           SKY/WX    TMP DP  RH WIND       PRES   REMARKS
STOCKTON       PTCLDY    60  50  69 W5        30.06F HAZE
MODESTO        CLEAR     62  48  60 CALM      30.07S HAZE
MERCED         CLEAR     63  47  55 NW5       30.07S HAZE
LEMOORE        CLEAR     66  32  28 CALM      30.07F HAZE
FRESNO         PTCLDY    66  45  46 CALM      30.07F
HANFORD        CLEAR     62  46  55 CALM      30.07F HAZE
PORTERVILLE    CLEAR     64  46  52 SW3       30.09S
BAKERSFIELD    CLEAR     67  44  43 SW3       30.08S HAZE
$$
CAZ011-012-071-280200-
NORTHERN MOUNTAINS

CITY           SKY/WX    TMP DP  RH WIND       PRES   REMARKS
YREKA          CLOUDY    49  35  58 VRB3      30.03S
MOUNT SHASTA   CLOUDY    51  30  44 SE5       30.10S
ALTURAS        CLOUDY    48  32  53 CALM      30.09S
$$
CAZ011-012-071-280200-
SIERRA NEVADA MTNS

CITY           SKY/WX    TMP DP  RH WIND       PRES   REMARKS
BLUE CANYON    PTCLDY    52  31  44 S8        30.22F
TRUCKEE        PTCLDY    54  14  20 S10       30.21F
TAHOE VLY ARPT PTCLDY    52  22  30 CALM      30.23F
MAMMOTH LAKES  FAIR      52  10  19 W5        30.31S
$$




USA.gov is the U.S. government's official web portal to all federal, state and local government web resources and services.